Weather History for KMWM - September, 2011

Change the Weather History Date:

Friday, September 9, 2011

  Actual Average Record
Temperature  
Mean Temperature 74 °F -  
Max Temperature 87 °F 76 °F 93 °F (2013)
Min Temperature 60 °F 52 °F 35 °F (2008)
Cooling Degree Days 8    
Growing Degree Days 24 (Base 50)    
Moisture  
Dew Point 58 °F    
Average Humidity 63    
Maximum Humidity 88    
Minimum Humidity 33    
Precipitation  
Precipitation 0.00 in - - ()
Sea Level Pressure  
Sea Level Pressure 30.09 in    
Wind  
Wind Speed 10 mph (NNW)    
Max Wind Speed 15 mph    
Max Gust Speed 20 mph    
Visibility 10 miles    
Events      
Averages and records for this station are not official NWS values.
T = Trace of Precipitation, MM = Missing Value Source: NWS Daily Summary

Daily Weather History Graph

Daily Weather History Graph

Search for Another Location

Airport or City:

Trip Planner

Search our weather history database for the weather conditions in past years. The results will help you decide how hot, cold, wet, or windy it might be!

Date:

Astronomy

Sep. 09, 2011 Rise Set
Actual Time 6:52 AM CDT 7:42 PM CDT
Civil Twilight 6:23 AM CDT 8:11 PM CDT
Nautical Twilight 5:48 AM CDT 8:46 PM CDT
Astronomical Twilight 5:12 AM CDT 9:22 PM CDT
Moon 6:11 PM CDT (9/9) 4:09 AM CDT (9/9)
Length of Visible Light 13h 48m
Length of Day
12h 49m
Waxing Gibbous, 93% of the Moon is Illuminated
Sep 9
Waxing Gibbous
Sep 12
Full
Sep 20
Last Quarter
Sep 27
New
Oct 3
First Quarter

Hourly Weather History & Observations

Time (CDT) Temp. Heat Index Dew Point Humidity Pressure Visibility Wind Dir Wind Speed Gust Speed Precip Events Conditions
12:12 AM 64.4 °F - 59.0 °F 83% 30.17 in 10.0 mi NW 13.8 mph - N/A   Clear
12:33 AM 64.4 °F - 59.0 °F 83% 30.17 in 10.0 mi NNW 8.1 mph - N/A   Clear
12:52 AM 62.6 °F - 59.0 °F 88% 30.17 in 10.0 mi NNW 11.5 mph - N/A   Clear
1:12 AM 62.6 °F - 59.0 °F 88% 30.16 in 10.0 mi NNW 11.5 mph - N/A   Clear
1:53 AM 62.6 °F - 59.0 °F 88% 30.15 in 10.0 mi NNW 6.9 mph - N/A   Clear
2:12 AM 62.6 °F - 59.0 °F 88% 30.15 in 10.0 mi NNW 6.9 mph - N/A   Clear
2:52 AM 62.6 °F - 59.0 °F 88% 30.14 in 10.0 mi NW 5.8 mph - N/A   Clear
3:13 AM 62.6 °F - 59.0 °F 88% 30.14 in 10.0 mi NW 6.9 mph - N/A   Clear
3:32 AM 62.6 °F - 57.2 °F 82% 30.15 in 10.0 mi NNW 5.8 mph - N/A   Clear
3:53 AM 60.8 °F - 57.2 °F 88% 30.14 in 10.0 mi NNW 6.9 mph - N/A   Clear
4:12 AM 62.6 °F - 57.2 °F 82% 30.14 in 10.0 mi NNW 6.9 mph - N/A   Clear
4:32 AM 62.6 °F - 57.2 °F 82% 30.14 in 10.0 mi NW 6.9 mph - N/A   Clear
4:53 AM 62.6 °F - 57.2 °F 82% 30.13 in 10.0 mi NW 8.1 mph - N/A   Clear
5:13 AM 62.6 °F - 59.0 °F 88% 30.13 in 10.0 mi NW 9.2 mph - N/A   Clear
5:32 AM 62.6 °F - 59.0 °F 88% 30.13 in 10.0 mi NW 9.2 mph - N/A   Clear
5:53 AM 62.6 °F - 57.2 °F 82% 30.12 in 10.0 mi NW 12.7 mph - N/A   Clear
6:12 AM 62.6 °F - 57.2 °F 82% 30.12 in 10.0 mi NW 15.0 mph - N/A   Clear
6:33 AM 62.6 °F - 57.2 °F 82% 30.12 in 10.0 mi NW 9.2 mph - N/A   Clear
6:52 AM 62.6 °F - 57.2 °F 82% 30.12 in 10.0 mi NW 8.1 mph - N/A   Clear
7:13 AM 62.6 °F - 59.0 °F 88% 30.12 in 10.0 mi NW 9.2 mph - N/A   Clear
7:32 AM 62.6 °F - 59.0 °F 88% 30.12 in 10.0 mi NW 10.4 mph - N/A   Clear
7:52 AM 64.4 °F - 60.8 °F 88% 30.12 in 10.0 mi NW 10.4 mph - N/A   Clear
8:13 AM 66.2 °F - 60.8 °F 83% 30.12 in 10.0 mi NW 9.2 mph - N/A   Clear
8:32 AM 66.2 °F - 60.8 °F 83% 30.12 in 10.0 mi NW 9.2 mph - N/A   Clear
9:12 AM 71.6 °F - 60.8 °F 69% 30.11 in 10.0 mi NNW 12.7 mph - N/A   Clear
9:33 AM 71.6 °F - 60.8 °F 69% 30.11 in 10.0 mi NNW 9.2 mph - N/A   Clear
9:53 AM 73.4 °F - 60.8 °F 65% 30.11 in 10.0 mi NNW 12.7 mph - N/A   Clear
10:12 AM 73.4 °F - 60.8 °F 65% 30.11 in 10.0 mi NNW 10.4 mph - N/A   Clear
10:33 AM 75.2 °F - 60.8 °F 61% 30.11 in 10.0 mi NNW 11.5 mph 16.1 mph N/A   Clear
11:12 AM 77.0 °F - 60.8 °F 57% 30.11 in 10.0 mi North 10.4 mph - N/A   Clear
11:33 AM 78.8 °F - 60.8 °F 54% 30.11 in 10.0 mi North 6.9 mph - N/A   Clear
11:53 AM 80.6 °F 81.5 °F 60.8 °F 51% 30.10 in 10.0 mi North 11.5 mph - N/A   Clear
12:12 PM 80.6 °F 81.5 °F 60.8 °F 51% 30.10 in 10.0 mi NNW 11.5 mph - N/A   Clear
12:33 PM 82.4 °F 82.9 °F 60.8 °F 48% 30.09 in 10.0 mi North 8.1 mph 16.1 mph N/A   Clear
12:53 PM 82.4 °F 82.9 °F 60.8 °F 48% 30.08 in 10.0 mi North 10.4 mph - N/A   Clear
1:12 PM 84.2 °F 84.4 °F 60.8 °F 45% 30.08 in 10.0 mi NNW 11.5 mph - N/A   Clear
1:33 PM 84.2 °F 83.5 °F 57.2 °F 40% 30.07 in 10.0 mi North 13.8 mph 17.3 mph N/A   Clear
1:52 PM 84.2 °F 83.0 °F 55.4 °F 37% 30.06 in 10.0 mi North 9.2 mph - N/A   Clear
2:12 PM 86.0 °F 84.9 °F 57.2 °F 37% 30.06 in 10.0 mi NNE 11.5 mph 16.1 mph N/A   Clear
2:33 PM 86.0 °F 84.9 °F 57.2 °F 37% 30.05 in 10.0 mi North 11.5 mph - N/A   Clear
2:52 PM 86.0 °F 84.9 °F 57.2 °F 37% 30.05 in 10.0 mi North 12.7 mph 18.4 mph N/A   Clear
3:13 PM 87.8 °F 86.1 °F 55.4 °F 33% 30.04 in 10.0 mi NNE 12.7 mph - N/A   Clear
3:32 PM 87.8 °F 86.1 °F 55.4 °F 33% 30.03 in 10.0 mi North 10.4 mph 17.3 mph N/A   Clear
3:52 PM 87.8 °F 86.1 °F 55.4 °F 33% 30.03 in 10.0 mi North 11.5 mph 16.1 mph N/A   Clear
4:12 PM 87.8 °F 86.1 °F 55.4 °F 33% 30.03 in 10.0 mi North 9.2 mph 17.3 mph N/A   Clear
4:32 PM 87.8 °F 86.5 °F 57.2 °F 35% 30.02 in 10.0 mi North 12.7 mph 18.4 mph N/A   Clear
4:53 PM 87.8 °F 86.1 °F 55.4 °F 33% 30.02 in 10.0 mi North 11.5 mph 17.3 mph N/A   Clear
5:12 PM 87.8 °F 86.5 °F 57.2 °F 35% 30.02 in 10.0 mi North 11.5 mph 16.1 mph N/A   Clear
5:32 PM 87.8 °F 86.1 °F 55.4 °F 33% 30.02 in 10.0 mi North 12.7 mph 19.6 mph N/A   Clear
5:53 PM 86.0 °F 84.9 °F 57.2 °F 37% 30.02 in 10.0 mi North 9.2 mph - N/A   Clear
6:12 PM 84.2 °F 83.0 °F 55.4 °F 37% 30.02 in 10.0 mi North 11.5 mph - N/A   Clear
6:33 PM 84.2 °F 83.5 °F 57.2 °F 40% 30.02 in 10.0 mi North 8.1 mph - N/A   Clear
6:52 PM 82.4 °F 82.9 °F 60.8 °F 48% 30.02 in 10.0 mi North 8.1 mph - N/A   Clear
7:12 PM 80.6 °F 81.5 °F 60.8 °F 51% 30.02 in 10.0 mi North 8.1 mph - N/A   Clear
7:32 PM 75.2 °F - 62.6 °F 65% 30.02 in 10.0 mi North 6.9 mph - N/A   Clear
7:52 PM 73.4 °F - 62.6 °F 69% 30.02 in 10.0 mi North 6.9 mph - N/A   Clear
8:13 PM 71.6 °F - 62.6 °F 73% 30.03 in 10.0 mi North 5.8 mph - N/A   Clear
8:32 PM 68.0 °F - 60.8 °F 78% 30.03 in 10.0 mi NNW 5.8 mph - N/A   Clear
8:52 PM 68.0 °F - 60.8 °F 78% 30.04 in 10.0 mi NNW 5.8 mph - N/A   Clear
9:12 PM 66.2 °F - 60.8 °F 83% 30.04 in 10.0 mi NNW 5.8 mph - N/A   Clear
9:32 PM 69.8 °F - 62.6 °F 78% 30.04 in 10.0 mi NNW 11.5 mph - N/A   Clear
10:13 PM 69.8 °F - 62.6 °F 78% 30.04 in 10.0 mi North 5.8 mph - N/A   Clear
10:32 PM 69.8 °F - 62.6 °F 78% 30.04 in 10.0 mi North 6.9 mph - N/A   Clear
10:53 PM 68.0 °F - 62.6 °F 83% 30.05 in 10.0 mi North 6.9 mph - N/A   Clear
11:12 PM 68.0 °F - 62.6 °F 83% 30.05 in 10.0 mi Calm Calm - N/A   Clear
11:32 PM 66.2 °F - 62.6 °F 88% 30.05 in 10.0 mi North 4.6 mph - N/A   Clear
11:52 PM 66.2 °F - 62.6 °F 88% 30.05 in 10.0 mi North 3.5 mph - N/A   Clear